| time (UTC) | temp F | wind direction | speed knots | gust knots | rain 1hr in | rain 24hr in | rain mn in | humidity % | barometer mb |
| 20260507153408 | 59 | 72 | 0.0 | 24.3 | 0.00 | 0.00 | 0.00 | 44 | 1015.9 |
| 20260507153108 | 59 | 7 | 16.5 | 16.5 | 0.00 | 0.00 | 0.00 | 44 | 1016.0 |
| 20260507152808 | 59 | 345 | 15.6 | 23.5 | 0.00 | 0.00 | 0.00 | 43 | 1015.9 |
| 20260507152508 | 59 | 283 | 4.3 | 19.1 | 0.00 | 0.00 | 0.00 | 44 | 1015.9 |
| 20260507152208 | 59 | 213 | 5.2 | 20.9 | 0.00 | 0.00 | 0.00 | 43 | 1015.9 |
| 20260507151908 | 59 | 320 | 9.6 | 26.9 | 0.00 | 0.00 | 0.00 | 42 | 1015.9 |
| 20260507151608 | 59 | 143 | 6.1 | 21.7 | 0.00 | 0.00 | 0.00 | 43 | 1015.9 |
| 20260507151308 | 59 | 281 | 4.3 | 25.2 | 0.00 | 0.00 | 0.00 | 42 | 1015.9 |
| 20260507151008 | 59 | 23 | 13.9 | 26.1 | 0.00 | 0.00 | 0.00 | 42 | 1015.9 |
| 20260507150708 | 59 | 69 | 6.1 | 26.1 | 0.00 | 0.00 | 0.00 | 44 | 1015.8 |
| 20260507150408 | 59 | 2 | 7.8 | 23.5 | 0.00 | 0.00 | 0.00 | 43 | 1015.8 |
| 20260507150108 | 59 | 354 | 18.2 | 20.0 | 0.00 | 0.00 | 0.00 | 43 | 1016.0 |
| 20260507145808 | 59 | 319 | 9.6 | 20.0 | 0.00 | 0.00 | 0.00 | 44 | 1015.9 |
| 20260507145508 | 59 | 79 | 9.6 | 33.0 | 0.00 | 0.00 | 0.00 | 45 | 1015.9 |
| 20260507145208 | 59 | 338 | 10.4 | 17.4 | 0.00 | 0.00 | 0.00 | 46 | 1015.9 |
| 20260507144908 | 58 | 56 | 7.0 | 33.9 | 0.00 | 0.00 | 0.00 | 45 | 1015.9 |
| 20260507144608 | 58 | 10 | 6.1 | 33.9 | 0.00 | 0.00 | 0.00 | 45 | 1016.0 |
| 20260507144308 | 59 | 355 | 9.6 | 23.5 | 0.00 | 0.00 | 0.00 | 44 | 1015.9 |
| 20260507144008 | 59 | 7 | 20.0 | 20.0 | 0.00 | 0.00 | 0.00 | 44 | 1016.0 |
| 20260507143708 | 58 | 337 | 7.8 | 30.4 | 0.00 | 0.00 | 0.00 | 42 | 1016.0 |
| 20260507143408 | 59 | 175 | 0.0 | 26.9 | 0.00 | 0.00 | 0.00 | 43 | 1016.0 |
| 20260507143108 | 59 | 39 | 5.2 | 23.5 | 0.00 | 0.00 | 0.00 | 44 | 1015.7 |
| 20260507142808 | 59 | 335 | 13.0 | 20.0 | 0.00 | 0.00 | 0.00 | 44 | 1015.8 |
| 20260507142508 | 59 | 294 | 12.2 | 20.9 | 0.00 | 0.00 | 0.00 | 45 | 1015.8 |
| 20260507142208 | 59 | 27 | 5.2 | 20.0 | 0.00 | 0.00 | 0.00 | 45 | 1015.8 |
| 20260507141908 | 60 | 55 | 13.0 | 20.0 | 0.00 | 0.00 | 0.00 | 44 | 1015.8 |
| 20260507141608 | 60 | 200 | 3.5 | 25.2 | 0.00 | 0.00 | 0.00 | 42 | 1015.9 |
| 20260507141308 | 60 | 111 | 6.1 | 33.9 | 0.00 | 0.00 | 0.00 | 41 | 1015.9 |
| 20260507141008 | 60 | 350 | 7.0 | 23.5 | 0.00 | 0.00 | 0.00 | 41 | 1015.7 |
| 20260507140708 | 60 | 284 | 9.6 | 23.5 | 0.00 | 0.00 | 0.00 | 41 | 1016.0 |
| 20260507140408 | 60 | 294 | 9.6 | 29.5 | 0.00 | 0.00 | 0.00 | 40 | 1015.9 |
| 20260507140108 | 59 | 286 | 8.7 | 25.2 | 0.00 | 0.00 | 0.00 | 40 | 1016.0 |
| 20260507135808 | 59 | 353 | 17.4 | 32.2 | 0.00 | 0.00 | 0.00 | 38 | 1016.0 |
| 20260507135508 | 60 | 276 | 5.2 | 26.9 | 0.00 | 0.00 | 0.00 | 40 | 1015.9 |
| 20260507135208 | 59 | 84 | 13.0 | 20.9 | 0.00 | 0.00 | 0.00 | 38 | 1015.9 |
| 20260507134908 | 59 | 62 | 7.0 | 20.0 | 0.00 | 0.00 | 0.00 | 38 | 1015.9 |
| 20260507134608 | 59 | 291 | 13.0 | 33.9 | 0.00 | 0.00 | 0.00 | 37 | 1015.8 |
| 20260507134308 | 59 | 3 | 9.6 | 31.3 | 0.00 | 0.00 | 0.00 | 39 | 1015.9 |
| 20260507134008 | 59 | 328 | 9.6 | 20.0 | 0.00 | 0.00 | 0.00 | 39 | 1016.0 |
| 20260507133708 | 59 | 303 | 7.0 | 23.5 | 0.00 | 0.00 | 0.00 | 39 | 1016.0 |
| 20260507133408 | 59 | 44 | 15.6 | 45.2 | 0.00 | 0.00 | 0.00 | 38 | 1015.8 |
| 20260507133108 | 59 | 78 | 5.2 | 20.0 | 0.00 | 0.00 | 0.00 | 40 | 1015.8 |
| 20260507132808 | 59 | 70 | 6.1 | 20.9 | 0.00 | 0.00 | 0.00 | 39 | 1015.8 |
| 20260507132508 | 59 | 30 | 13.0 | 20.0 | 0.00 | 0.00 | 0.00 | 39 | 1015.7 |
| 20260507132208 | 59 | 352 | 12.2 | 40.0 | 0.00 | 0.00 | 0.00 | 39 | 1015.7 |
| 20260507131908 | 59 | 89 | 7.8 | 26.9 | 0.00 | 0.00 | 0.00 | 40 | 1015.7 |
| 20260507131608 | 59 | 7 | 7.0 | 40.0 | 0.00 | 0.00 | 0.00 | 41 | 1015.8 |
| 20260507131308 | 59 | 12 | 11.3 | 22.6 | 0.00 | 0.00 | 0.00 | 42 | 1015.9 |
| 20260507131008 | 58 | 204 | 9.6 | 21.7 | 0.00 | 0.00 | 0.00 | 42 | 1015.9 |
| 20260507130708 | 58 | 349 | 9.6 | 23.5 | 0.00 | 0.00 | 0.00 | 44 | 1015.7 |
| 20260507130408 | 58 | 299 | 5.2 | 34.8 | 0.00 | 0.00 | 0.00 | 44 | 1015.8 |
| 20260507130108 | 58 | 13 | 13.0 | 23.5 | 0.00 | 0.00 | 0.00 | 45 | 1015.7 |
| 20260507125808 | 60 | 313 | 13.0 | 38.2 | 0.00 | 0.00 | 0.00 | 43 | 1015.6 |
| 20260507125508 | 60 | 122 | 11.3 | 18.2 | 0.00 | 0.00 | 0.00 | 43 | 1015.7 |
| 20260507125208 | 59 | 21 | 4.3 | 26.9 | 0.00 | 0.00 | 0.00 | 45 | 1015.7 |
| 20260507124908 | 59 | 326 | 20.0 | 28.7 | 0.00 | 0.00 | 0.00 | 43 | 1015.6 |
| 20260507124608 | 59 | 118 | 12.2 | 30.4 | 0.00 | 0.00 | 0.00 | 45 | 1015.6 |
| 20260507124308 | 59 | 31 | 24.3 | 27.8 | 0.00 | 0.00 | 0.00 | 44 | 1015.7 |
| 20260507124008 | 59 | 337 | 8.7 | 17.4 | 0.00 | 0.00 | 0.00 | 44 | 1015.7 |
| 20260507123708 | 59 | 107 | 4.3 | 21.7 | 0.00 | 0.00 | 0.00 | 44 | 1015.5 |
| 20260507123408 | 58 | 324 | 8.7 | 18.2 | 0.00 | 0.00 | 0.00 | 46 | 1015.5 |
| 20260507123108 | 58 | 281 | 19.1 | 21.7 | 0.00 | 0.00 | 0.00 | 45 | 1015.5 |
| 20260507122808 | 58 | 110 | 13.0 | 18.2 | 0.00 | 0.00 | 0.00 | 46 | 1015.6 |
| 20260507122508 | 58 | 297 | 5.2 | 26.9 | 0.00 | 0.00 | 0.00 | 46 | 1015.7 |
| 20260507122208 | 58 | 106 | 5.2 | 16.5 | 0.00 | 0.00 | 0.00 | 48 | 1015.5 |
| 20260507121908 | 58 | 274 | 11.3 | 23.5 | 0.00 | 0.00 | 0.00 | 47 | 1015.7 |
| 20260507121608 | 58 | 77 | 7.0 | 32.2 | 0.00 | 0.00 | 0.00 | 46 | 1015.5 |
| 20260507121308 | 58 | 332 | 14.8 | 20.0 | 0.00 | 0.00 | 0.00 | 47 | 1015.5 |
| 20260507121008 | 58 | 70 | 13.0 | 21.7 | 0.00 | 0.00 | 0.00 | 49 | 1015.6 |
| 20260507120708 | 58 | 271 | 9.6 | 27.8 | 0.00 | 0.00 | 0.00 | 49 | 1015.6 |
| 20260507120408 | 58 | 325 | 15.6 | 21.7 | 0.00 | 0.00 | 0.00 | 50 | 1015.4 |
| 20260507120108 | 58 | 345 | 9.6 | 23.5 | 0.00 | 0.00 | 0.00 | 50 | 1015.5 |
| 20260507115808 | 58 | 269 | 7.0 | 17.4 | 0.00 | 0.00 | 0.00 | 52 | 1015.4 |
| 20260507115508 | 57 | 78 | 8.7 | 16.5 | 0.00 | 0.00 | 0.00 | 52 | 1015.4 |
| 20260507115208 | 57 | 94 | 22.6 | 25.2 | 0.00 | 0.00 | 0.00 | 49 | 1015.3 |
| 20260507114908 | 57 | 128 | 8.7 | 26.1 | 0.00 | 0.00 | 0.00 | 52 | 1015.7 |
| 20260507114608 | 57 | 357 | 16.5 | 42.6 | 0.00 | 0.00 | 0.00 | 54 | 1015.6 |
| 20260507114308 | 57 | 17 | 5.2 | 20.0 | 0.00 | 0.00 | 0.00 | 53 | 1015.4 |
| 20260507114008 | 57 | 354 | 9.6 | 34.8 | 0.00 | 0.00 | 0.00 | 53 | 1015.4 |
| 20260507113708 | 57 | 103 | 13.0 | 29.5 | 0.00 | 0.00 | 0.00 | 53 | 1015.4 |
| 20260507113408 | 57 | 42 | 8.7 | 18.2 | 0.00 | 0.00 | 0.00 | 56 | 1015.6 |
| 20260507113108 | 57 | 43 | 8.7 | 21.7 | 0.00 | 0.00 | 0.00 | 56 | 1015.4 |
| 20260507112808 | 58 | 359 | 12.2 | 25.2 | 0.00 | 0.00 | 0.00 | 55 | 1015.4 |
| 20260507112508 | 58 | 36 | 5.2 | 26.9 | 0.00 | 0.00 | 0.00 | 53 | 1015.4 |
| 20260507112208 | 57 | 92 | 10.4 | 25.2 | 0.00 | 0.00 | 0.00 | 53 | 1015.4 |
| 20260507111908 | 57 | 42 | 7.0 | 30.4 | 0.00 | 0.00 | 0.00 | 54 | 1015.4 |
| 20260507111608 | 57 | 85 | 0.0 | 13.0 | 0.00 | 0.00 | 0.00 | 51 | 1015.3 |
| 20260507111308 | 57 | 351 | 24.3 | 36.5 | 0.00 | 0.00 | 0.00 | 52 | 1015.4 |
| 20260507111008 | 57 | 59 | 10.4 | 21.7 | 0.00 | 0.00 | 0.00 | 54 | 1015.4 |
| 20260507110708 | 57 | 296 | 7.0 | 20.0 | 0.00 | 0.00 | 0.00 | 54 | 1015.3 |
| 20260507110408 | 56 | 80 | 13.9 | 20.0 | 0.00 | 0.00 | 0.00 | 54 | 1015.3 |
| 20260507110108 | 56 | 348 | 20.0 | 22.6 | 0.00 | 0.00 | 0.00 | 53 | 1015.3 |
| 20260507105808 | 56 | 343 | 10.4 | 26.1 | 0.00 | 0.00 | 0.00 | 53 | 1015.4 |
| 20260507105508 | 56 | 6 | 9.6 | 33.9 | 0.00 | 0.00 | 0.00 | 53 | 1015.4 |
| 20260507105208 | 56 | 5 | 21.7 | 24.3 | 0.00 | 0.00 | 0.00 | 54 | 1015.4 |
| 20260507104908 | 56 | 56 | 16.5 | 31.3 | 0.00 | 0.00 | 0.00 | 54 | 1015.3 |
| 20260507104608 | 56 | 330 | 26.9 | 32.2 | 0.00 | 0.00 | 0.00 | 54 | 1015.2 |
| 20260507104308 | 56 | 49 | 6.1 | 29.5 | 0.00 | 0.00 | 0.00 | 56 | 1015.4 |
| 20260507104008 | 56 | 356 | 6.1 | 37.4 | 0.00 | 0.00 | 0.00 | 53 | 1015.3 |
| 20260507103708 | 56 | 68 | 11.3 | 19.1 | 0.00 | 0.00 | 0.00 | 52 | 1015.3 |
| 20260507103408 | 56 | 352 | 24.3 | 25.2 | 0.00 | 0.00 | 0.00 | 54 | 1015.4 |
| 20260507103108 | 56 | 20 | 13.0 | 21.7 | 0.00 | 0.00 | 0.00 | 55 | 1015.2 |
| 20260507102808 | 55 | 16 | 7.0 | 27.8 | 0.00 | 0.00 | 0.00 | 56 | 1015.4 |
| 20260507102508 | 56 | 357 | 40.8 | 43.4 | 0.00 | 0.00 | 0.00 | 55 | 1015.2 |
| 20260507102208 | 56 | 296 | 13.0 | 27.8 | 0.00 | 0.00 | 0.00 | 57 | 1015.3 |
| 20260507101908 | 56 | 310 | 11.3 | 30.4 | 0.00 | 0.00 | 0.00 | 58 | 1015.0 |
| 20260507101608 | 56 | 31 | 13.0 | 26.9 | 0.00 | 0.00 | 0.00 | 59 | 1015.4 |
| 20260507101308 | 56 | 345 | 19.1 | 33.9 | 0.00 | 0.00 | 0.00 | 58 | 1015.2 |
| 20260507101008 | 56 | 352 | 17.4 | 40.0 | 0.00 | 0.00 | 0.00 | 60 | 1015.1 |
| 20260507100708 | 56 | 313 | 19.1 | 25.2 | 0.00 | 0.00 | 0.00 | 58 | 1015.1 |
| 20260507100408 | 56 | 285 | 5.2 | 23.5 | 0.00 | 0.00 | 0.00 | 60 | 1014.9 |
| 20260507100108 | 56 | 19 | 14.8 | 26.9 | 0.00 | 0.00 | 0.00 | 59 | 1015.0 |
| 20260507095808 | 56 | 99 | 22.6 | 25.2 | 0.00 | 0.00 | 0.00 | 61 | 1015.1 |
| 20260507095508 | 56 | 7 | 26.9 | 27.8 | 0.00 | 0.00 | 0.00 | 60 | 1014.9 |
| 20260507095208 | 55 | 61 | 9.6 | 20.9 | 0.00 | 0.00 | 0.00 | 61 | 1015.0 |
| 20260507094908 | 56 | 61 | 30.4 | 33.9 | 0.00 | 0.00 | 0.00 | 59 | 1014.8 |
| 20260507094608 | 56 | 27 | 9.6 | 28.7 | 0.00 | 0.00 | 0.00 | 60 | 1015.0 |
| 20260507094308 | 56 | 323 | 10.4 | 20.0 | 0.00 | 0.00 | 0.00 | 59 | 1014.9 |
| 20260507094008 | 56 | 350 | 4.3 | 20.0 | 0.00 | 0.00 | 0.00 | 60 | 1014.9 |
| 20260507093708 | 56 | 9 | 4.3 | 17.4 | 0.00 | 0.00 | 0.00 | 61 | 1014.9 |
| 20260507093408 | 56 | 328 | 5.2 | 13.0 | 0.00 | 0.00 | 0.00 | 60 | 1014.9 |
| 20260507093108 | 56 | 354 | 13.0 | 22.6 | 0.00 | 0.00 | 0.00 | 59 | 1015.1 |
| 20260507092808 | 56 | 325 | 5.2 | 15.6 | 0.00 | 0.00 | 0.00 | 60 | 1015.0 |
| 20260507092508 | 56 | 25 | 7.8 | 24.3 | 0.00 | 0.00 | 0.00 | 60 | 1014.7 |
| 20260507092208 | 56 | 354 | 7.0 | 13.0 | 0.00 | 0.00 | 0.00 | 61 | 1014.7 |
| 20260507091908 | 56 | 349 | 13.9 | 23.5 | 0.00 | 0.00 | 0.00 | 60 | 1014.8 |
| 20260507091608 | 55 | 76 | 8.7 | 20.9 | 0.00 | 0.00 | 0.00 | 63 | 1014.8 |
| 20260507091308 | 55 | 323 | 12.2 | 33.0 | 0.00 | 0.00 | 0.00 | 63 | 1014.8 |
| 20260507091008 | 56 | 6 | 12.2 | 20.0 | 0.00 | 0.00 | 0.00 | 62 | 1014.5 |
| 20260507090708 | 55 | 113 | 3.5 | 20.0 | 0.00 | 0.00 | 0.00 | 63 | 1014.9 |
| 20260507090408 | 55 | 60 | 12.2 | 35.6 | 0.00 | 0.00 | 0.00 | 63 | 1014.9 |
| 20260507090108 | 56 | 94 | 16.5 | 26.1 | 0.00 | 0.00 | 0.00 | 62 | 1014.6 |
| 20260507085808 | 55 | 42 | 9.6 | 16.5 | 0.00 | 0.00 | 0.00 | 65 | 1014.6 |
| 20260507085508 | 55 | 21 | 7.8 | 20.0 | 0.00 | 0.00 | 0.00 | 64 | 1014.7 |
| 20260507085208 | 55 | 101 | 23.5 | 27.8 | 0.00 | 0.00 | 0.00 | 62 | 1014.7 |
| 20260507084908 | 55 | 86 | 9.6 | 17.4 | 0.00 | 0.00 | 0.00 | 63 | 1014.7 |
| 20260507084608 | 55 | 11 | 11.3 | 20.0 | 0.00 | 0.00 | 0.00 | 64 | 1014.6 |
| 20260507084308 | 55 | 19 | 7.8 | 23.5 | 0.00 | 0.00 | 0.00 | 65 | 1014.6 |
| 20260507084008 | 55 | 6 | 9.6 | 15.6 | 0.00 | 0.00 | 0.00 | 63 | 1014.6 |
| 20260507083708 | 55 | 358 | 5.2 | 29.5 | 0.00 | 0.00 | 0.00 | 63 | 1014.7 |
| 20260507083408 | 55 | 6 | 7.8 | 17.4 | 0.00 | 0.00 | 0.00 | 65 | 1014.5 |
| 20260507083108 | 55 | 24 | 14.8 | 36.5 | 0.00 | 0.00 | 0.00 | 64 | 1014.6 |
| 20260507082808 | 55 | 348 | 16.5 | 20.0 | 0.00 | 0.00 | 0.00 | 63 | 1014.7 |
| 20260507082508 | 55 | 79 | 8.7 | 16.5 | 0.00 | 0.00 | 0.00 | 64 | 1014.5 |
| 20260507082208 | 55 | 357 | 10.4 | 21.7 | 0.00 | 0.00 | 0.00 | 64 | 1014.4 |
| 20260507081908 | 54 | 26 | 9.6 | 20.0 | 0.00 | 0.00 | 0.00 | 65 | 1014.6 |
| 20260507081608 | 54 | 86 | 8.7 | 20.0 | 0.00 | 0.00 | 0.00 | 66 | 1014.5 |
| 20260507081308 | 54 | 12 | 14.8 | 16.5 | 0.00 | 0.00 | 0.00 | 65 | 1014.6 |
| 20260507081008 | 54 | 355 | 9.6 | 21.7 | 0.00 | 0.00 | 0.00 | 65 | 1014.5 |
| 20260507080708 | 54 | 80 | 16.5 | 30.4 | 0.00 | 0.00 | 0.00 | 64 | 1014.4 |
| 20260507080408 | 54 | 101 | 11.3 | 13.9 | 0.00 | 0.00 | 0.00 | 66 | 1014.4 |
| 20260507080108 | 53 | 89 | 3.5 | 26.1 | 0.00 | 0.00 | 0.00 | 67 | 1014.3 |
| 20260507075808 | 53 | 53 | 16.5 | 16.5 | 0.00 | 0.00 | 0.00 | 68 | 1014.3 |
| 20260507075508 | 53 | 360 | 13.9 | 18.2 | 0.00 | 0.00 | 0.00 | 67 | 1014.2 |
| 20260507075208 | 53 | 47 | 7.0 | 20.0 | 0.00 | 0.00 | 0.00 | 67 | 1014.2 |
| 20260507074908 | 53 | 32 | 5.2 | 23.5 | 0.00 | 0.00 | 0.00 | 66 | 1014.3 |
| 20260507074608 | 53 | 333 | 8.7 | 20.0 | 0.00 | 0.00 | 0.00 | 66 | 1014.0 |
| 20260507074308 | 53 | 116 | 9.6 | 24.3 | 0.00 | 0.00 | 0.00 | 65 | 1014.1 |
| 20260507074008 | 53 | 69 | 11.3 | 33.9 | 0.00 | 0.00 | 0.00 | 65 | 1014.1 |
| 20260507073708 | 53 | 69 | 13.9 | 26.9 | 0.00 | 0.00 | 0.00 | 64 | 1014.2 |
| 20260507073408 | 53 | 55 | 19.1 | 26.1 | 0.00 | 0.00 | 0.00 | 64 | 1014.0 |
| 20260507073108 | 53 | 341 | 7.8 | 27.8 | 0.00 | 0.00 | 0.00 | 63 | 1014.0 |
| 20260507072808 | 52 | 97 | 5.2 | 10.4 | 0.00 | 0.00 | 0.00 | 66 | 1014.0 |
| 20260507072509 | 51 | 67 | 13.0 | 34.8 | 0.00 | 0.00 | 0.00 | 66 | 1014.1 |
| 20260507072208 | 51 | 55 | 21.7 | 23.5 | 0.00 | 0.00 | 0.00 | 65 | 1014.0 |
| 20260507071908 | 51 | 123 | 20.0 | 32.2 | 0.00 | 0.00 | 0.00 | 65 | 1014.2 |
| 20260507071608 | 51 | 28 | 12.2 | 33.9 | 0.00 | 0.00 | 0.00 | 65 | 1014.1 |
| 20260507071308 | 51 | 82 | 22.6 | 33.9 | 0.00 | 0.00 | 0.00 | 65 | 1014.2 |
| 20260507071008 | 51 | 96 | 11.3 | 29.5 | 0.00 | 0.00 | 0.00 | 67 | 1013.9 |
| 20260507070708 | 51 | 80 | 17.4 | 28.7 | 0.00 | 0.00 | 0.00 | 65 | 1014.0 |
| 20260507070408 | 51 | 62 | 13.0 | 26.1 | 0.00 | 0.00 | 0.00 | 66 | 1014.0 |
| 20260507070108 | 51 | 98 | 13.0 | 30.4 | 0.00 | 0.00 | 0.00 | 65 | 1014.1 |
| 20260507065808 | 50 | 93 | 8.7 | 20.0 | 0.00 | 0.00 | 0.00 | 67 | 1014.0 |
| 20260507065508 | 50 | 261 | 13.9 | 44.3 | 0.00 | 0.00 | 0.00 | 67 | 1014.0 |
| 20260507065208 | 50 | 112 | 9.6 | 26.9 | 0.00 | 0.00 | 0.00 | 67 | 1013.9 |
| 20260507064908 | 50 | 93 | 7.0 | 17.4 | 0.00 | 0.00 | 0.00 | 70 | 1014.0 |
| 20260507064608 | 49 | 71 | 9.6 | 27.8 | 0.00 | 0.00 | 0.00 | 71 | 1014.1 |
| 20260507064308 | 49 | 67 | 16.5 | 26.1 | 0.00 | 0.00 | 0.00 | 71 | 1013.9 |
| 20260507064008 | 48 | 47 | 9.6 | 31.3 | 0.00 | 0.00 | 0.00 | 71 | 1014.1 |
| 20260507063708 | 47 | 19 | 19.1 | 20.0 | 0.00 | 0.00 | 0.00 | 74 | 1013.9 |
| 20260507063408 | 47 | 65 | 7.8 | 16.5 | 0.00 | 0.00 | 0.00 | 74 | 1013.8 |
| 20260507063108 | 47 | 47 | 22.6 | 23.5 | 0.00 | 0.00 | 0.00 | 75 | 1013.9 |
| 20260507062808 | 47 | 64 | 0.0 | 14.8 | 0.00 | 0.00 | 0.00 | 76 | 1013.8 |
| 20260507062508 | 47 | 34 | 7.0 | 14.8 | 0.00 | 0.00 | 0.00 | 76 | 1013.8 |
| 20260507062208 | 46 | 13 | 5.2 | 13.9 | 0.00 | 0.00 | 0.00 | 76 | 1013.8 |
| 20260507061908 | 46 | 102 | 9.6 | 20.9 | 0.00 | 0.00 | 0.00 | 76 | 1013.8 |
| 20260507061608 | 46 | 116 | 14.8 | 20.0 | 0.00 | 0.00 | 0.00 | 76 | 1013.7 |
| 20260507061308 | 46 | 308 | 7.8 | 11.3 | 0.00 | 0.00 | 0.00 | 77 | 1013.5 |
| 20260507061008 | 46 | 81 | 9.6 | 23.5 | 0.00 | 0.00 | 0.00 | 76 | 1013.7 |
| 20260507060708 | 46 | 355 | 0.0 | 13.0 | 0.00 | 0.00 | 0.00 | 76 | 1013.6 |
| 20260507060408 | 46 | 62 | 10.4 | 20.0 | 0.00 | 0.00 | 0.00 | 77 | 1013.5 |
| 20260507060108 | 46 | 86 | 5.2 | 10.4 | 0.00 | 0.00 | 0.00 | 78 | 1013.7 |
| 20260507055808 | 46 | 85 | 7.0 | 16.5 | 0.00 | 0.00 | 0.00 | 77 | 1013.5 |
| 20260507055508 | 46 | 57 | 9.6 | 13.9 | 0.00 | 0.00 | 0.00 | 78 | 1013.6 |
| 20260507055208 | 46 | 47 | 13.9 | 26.1 | 0.00 | 0.00 | 0.00 | 78 | 1013.5 |
| 20260507054908 | 46 | 77 | 13.0 | 20.9 | 0.00 | 0.00 | 0.00 | 78 | 1013.4 |
| 20260507054608 | 46 | 48 | 13.0 | 24.3 | 0.00 | 0.00 | 0.00 | 78 | 1013.4 |
| 20260507054308 | 46 | 148 | 9.6 | 13.9 | 0.00 | 0.00 | 0.00 | 79 | 1013.4 |
| 20260507054008 | 46 | 137 | 10.4 | 13.0 | 0.00 | 0.00 | 0.00 | 79 | 1013.2 |
| 20260507053708 | 46 | 123 | 11.3 | 11.3 | 0.00 | 0.00 | 0.00 | 79 | 1013.4 |
| 20260507053408 | 46 | 48 | 10.4 | 26.1 | 0.00 | 0.00 | 0.00 | 79 | 1013.2 |
| 20260507053108 | 46 | 83 | 13.9 | 21.7 | 0.00 | 0.00 | 0.00 | 79 | 1013.4 |
| 20260507052808 | 45 | 104 | 13.0 | 17.4 | 0.00 | 0.00 | 0.00 | 80 | 1013.2 |
| 20260507052508 | 45 | 86 | 9.6 | 17.4 | 0.00 | 0.00 | 0.00 | 79 | 1012.9 |
| 20260507052208 | 45 | 76 | 4.3 | 18.2 | 0.00 | 0.00 | 0.00 | 80 | 1013.1 |
| 20260507051908 | 45 | 14 | 4.3 | 11.3 | 0.00 | 0.00 | 0.00 | 80 | 1013.1 |
| 20260507051608 | 45 | 71 | 9.6 | 21.7 | 0.00 | 0.00 | 0.00 | 80 | 1013.0 |
| 20260507051308 | 45 | 87 | 12.2 | 20.0 | 0.00 | 0.00 | 0.00 | 80 | 1013.0 |
| 20260507051008 | 45 | 67 | 13.9 | 17.4 | 0.00 | 0.00 | 0.00 | 80 | 1013.0 |
| 20260507050708 | 45 | 133 | 7.8 | 17.4 | 0.00 | 0.00 | 0.00 | 80 | 1013.1 |
| 20260507050408 | 45 | 98 | 7.0 | 16.5 | 0.00 | 0.00 | 0.00 | 80 | 1012.9 |
| 20260507050108 | 45 | 62 | 9.6 | 18.2 | 0.00 | 0.00 | 0.00 | 80 | 1012.9 |
| 20260507045808 | 45 | 78 | 0.0 | 10.4 | 0.00 | 0.00 | 0.00 | 81 | 1012.9 |
| 20260507045508 | 45 | 106 | 11.3 | 22.6 | 0.00 | 0.00 | 0.00 | 81 | 1012.8 |
| 20260507045208 | 45 | 85 | 9.6 | 13.0 | 0.00 | 0.00 | 0.00 | 81 | 1012.7 |
| 20260507044908 | 45 | 57 | 9.6 | 16.5 | 0.00 | 0.00 | 0.00 | 81 | 1012.8 |
| 20260507044608 | 45 | 127 | 13.0 | 16.5 | 0.00 | 0.00 | 0.00 | 81 | 1012.7 |
| 20260507044308 | 45 | 72 | 6.1 | 24.3 | 0.00 | 0.00 | 0.00 | 81 | 1012.8 |
| 20260507044008 | 44 | 177 | 9.6 | 13.9 | 0.00 | 0.00 | 0.00 | 81 | 1012.7 |
| 20260507043708 | 44 | 171 | 11.3 | 20.0 | 0.00 | 0.00 | 0.00 | 81 | 1012.5 |
| 20260507043408 | 44 | 26 | 15.6 | 20.0 | 0.00 | 0.00 | 0.00 | 81 | 1012.8 |
| 20260507043108 | 44 | 83 | 13.0 | 17.4 | 0.00 | 0.00 | 0.00 | 81 | 1012.6 |
| 20260507042808 | 44 | 117 | 13.9 | 28.7 | 0.00 | 0.00 | 0.00 | 81 | 1012.7 |
| 20260507042508 | 44 | 207 | 7.8 | 18.2 | 0.00 | 0.00 | 0.00 | 81 | 1012.5 |
| 20260507042208 | 44 | 157 | 7.0 | 13.0 | 0.00 | 0.00 | 0.00 | 82 | 1012.5 |
| 20260507041908 | 44 | 117 | 20.9 | 31.3 | 0.00 | 0.00 | 0.00 | 82 | 1012.5 |
| 20260507041608 | 44 | 167 | 12.2 | 20.0 | 0.00 | 0.00 | 0.00 | 82 | 1012.7 |
| 20260507041308 | 44 | 97 | 12.2 | 14.8 | 0.00 | 0.00 | 0.00 | 82 | 1012.5 |
| 20260507041008 | 44 | 127 | 7.0 | 16.5 | 0.00 | 0.00 | 0.00 | 82 | 1012.5 |
| 20260507040708 | 44 | 102 | 12.2 | 19.1 | 0.00 | 0.00 | 0.00 | 82 | 1012.4 |
| 20260507040408 | 44 | 118 | 4.3 | 8.7 | 0.00 | 0.00 | 0.00 | 82 | 1012.6 |
| 20260507040108 | 44 | 84 | 10.4 | 16.5 | 0.00 | 0.00 | 0.00 | 82 | 1012.4 |
| 20260507035808 | 44 | 143 | 9.6 | 18.2 | 0.00 | 0.00 | 0.00 | 83 | 1012.2 |
| 20260507035508 | 44 | 61 | 6.1 | 15.6 | 0.00 | 0.00 | 0.00 | 83 | 1012.5 |
| 20260507035208 | 44 | 138 | 12.2 | 23.5 | 0.00 | 0.00 | 0.00 | 83 | 1012.5 |
| 20260507034908 | 44 | 99 | 10.4 | 15.6 | 0.00 | 0.00 | 0.00 | 83 | 1012.4 |
| 20260507034608 | 44 | 81 | 7.0 | 29.5 | 0.00 | 0.00 | 0.00 | 83 | 1012.4 |
| 20260507034308 | 44 | 121 | 9.6 | 17.4 | 0.00 | 0.00 | 0.00 | 83 | 1012.3 |
| 20260507034008 | 44 | 131 | 7.8 | 12.2 | 0.00 | 0.00 | 0.00 | 83 | 1012.4 |
| 20260507033708 | 44 | 167 | 5.2 | 16.5 | 0.00 | 0.00 | 0.00 | 83 | 1012.4 |
| 20260507033408 | 44 | 80 | 8.7 | 14.8 | 0.00 | 0.00 | 0.00 | 83 | 1012.4 |
| 20260507033108 | 44 | 146 | 12.2 | 16.5 | 0.00 | 0.00 | 0.00 | 83 | 1012.3 |
| 20260507032808 | 44 | 67 | 10.4 | 19.1 | 0.00 | 0.00 | 0.00 | 83 | 1012.3 |
| 20260507032508 | 44 | 350 | 5.2 | 19.1 | 0.00 | 0.00 | 0.00 | 83 | 1012.2 |
| 20260507032208 | 44 | 7 | 7.0 | 19.1 | 0.00 | 0.00 | 0.00 | 83 | 1012.4 |
| 20260507031908 | 44 | 76 | 9.6 | 20.0 | 0.00 | 0.00 | 0.00 | 82 | 1012.4 |
| 20260507031608 | 44 | 107 | 9.6 | 19.1 | 0.00 | 0.00 | 0.00 | 83 | 1012.1 |
| 20260507031308 | 44 | 78 | 4.3 | 16.5 | 0.00 | 0.00 | 0.00 | 83 | 1012.2 |
| 20260507031008 | 44 | 95 | 7.0 | 15.6 | 0.00 | 0.00 | 0.00 | 83 | 1012.2 |
| 20260507030708 | 44 | 57 | 10.4 | 18.2 | 0.00 | 0.00 | 0.00 | 83 | 1012.3 |
| 20260507030408 | 44 | 81 | 8.7 | 20.0 | 0.00 | 0.00 | 0.00 | 83 | 1012.2 |
| 20260507030108 | 44 | 14 | 5.2 | 18.2 | 0.00 | 0.00 | 0.00 | 83 | 1012.0 |
| 20260507025808 | 44 | 55 | 14.8 | 24.3 | 0.00 | 0.00 | 0.00 | 84 | 1011.8 |
| 20260507025508 | 44 | 113 | 7.0 | 15.6 | 0.00 | 0.00 | 0.00 | 84 | 1012.0 |
| 20260507025208 | 44 | 74 | 13.0 | 19.1 | 0.00 | 0.00 | 0.00 | 84 | 1012.1 |
| 20260507024908 | 44 | 51 | 5.2 | 15.6 | 0.00 | 0.00 | 0.00 | 84 | 1012.0 |
| 20260507024608 | 44 | 98 | 10.4 | 20.9 | 0.00 | 0.00 | 0.00 | 84 | 1012.0 |
| 20260507024308 | 44 | 29 | 5.2 | 16.5 | 0.00 | 0.00 | 0.00 | 84 | 1011.9 |
| 20260507024008 | 44 | 40 | 7.8 | 18.2 | 0.00 | 0.00 | 0.00 | 84 | 1012.0 |
| 20260507023708 | 44 | 39 | 6.1 | 26.1 | 0.00 | 0.00 | 0.00 | 84 | 1011.9 |
| 20260507023408 | 44 | 57 | 5.2 | 17.4 | 0.00 | 0.00 | 0.00 | 84 | 1011.9 |
| 20260507023108 | 44 | 83 | 3.5 | 23.5 | 0.00 | 0.00 | 0.00 | 84 | 1011.8 |
| 20260507022808 | 44 | 102 | 9.6 | 13.9 | 0.00 | 0.00 | 0.00 | 84 | 1011.9 |
| 20260507022508 | 44 | 76 | 7.8 | 20.0 | 0.00 | 0.00 | 0.00 | 84 | 1011.8 |
| 20260507022208 | 44 | 103 | 8.7 | 18.2 | 0.00 | 0.00 | 0.00 | 84 | 1012.0 |
| 20260507021908 | 44 | 106 | 3.5 | 13.9 | 0.00 | 0.00 | 0.00 | 84 | 1012.0 |
| 20260507021608 | 44 | 43 | 10.4 | 16.5 | 0.00 | 0.00 | 0.00 | 84 | 1012.0 |
| 20260507021308 | 44 | 65 | 8.7 | 13.0 | 0.00 | 0.00 | 0.00 | 85 | 1012.1 |
| 20260507021008 | 44 | 70 | 16.5 | 19.1 | 0.00 | 0.00 | 0.00 | 85 | 1011.9 |
| 20260507020708 | 44 | 95 | 5.2 | 20.0 | 0.00 | 0.00 | 0.00 | 85 | 1012.0 |
| 20260507020408 | 44 | 37 | 0.0 | 16.5 | 0.00 | 0.00 | 0.00 | 85 | 1011.9 |
| 20260507020108 | 44 | 70 | 14.8 | 23.5 | 0.00 | 0.00 | 0.00 | 85 | 1011.8 |
| 20260507015808 | 44 | 118 | 12.2 | 22.6 | 0.00 | 0.00 | 0.00 | 85 | 1011.7 |
| 20260507015508 | 44 | 69 | 7.0 | 13.9 | 0.00 | 0.00 | 0.00 | 85 | 1011.8 |
| 20260507015208 | 44 | 79 | 9.6 | 10.4 | 0.00 | 0.00 | 0.00 | 85 | 1011.6 |
| 20260507014908 | 44 | 87 | 0.0 | 11.3 | 0.00 | 0.00 | 0.00 | 85 | 1011.5 |
| 20260507014608 | 44 | 82 | 7.0 | 20.0 | 0.00 | 0.00 | 0.00 | 85 | 1011.6 |
| 20260507014308 | 44 | 97 | 9.6 | 20.0 | 0.00 | 0.00 | 0.00 | 85 | 1011.5 |
| 20260507014008 | 44 | 88 | 10.4 | 15.6 | 0.00 | 0.00 | 0.00 | 85 | 1011.5 |
| 20260507013708 | 44 | 63 | 0.0 | 17.4 | 0.00 | 0.00 | 0.00 | 85 | 1011.7 |
| 20260507013408 | 44 | 108 | 0.0 | 12.2 | 0.00 | 0.00 | 0.00 | 85 | 1011.5 |
| 20260507013108 | 44 | 61 | 13.9 | 13.9 | 0.00 | 0.00 | 0.00 | 86 | 1011.3 |
| 20260507012808 | 44 | 105 | 8.7 | 18.2 | 0.00 | 0.00 | 0.00 | 86 | 1011.5 |
| 20260507012508 | 44 | 100 | 6.1 | 17.4 | 0.00 | 0.00 | 0.00 | 86 | 1011.5 |
| 20260507012208 | 44 | 96 | 5.2 | 14.8 | 0.00 | 0.00 | 0.00 | 86 | 1011.5 |
| 20260507011908 | 44 | 144 | 0.0 | 13.0 | 0.00 | 0.00 | 0.00 | 86 | 1011.6 |
| 20260507011608 | 44 | 96 | 9.6 | 16.5 | 0.00 | 0.00 | 0.00 | 86 | 1011.5 |
| 20260507011308 | 44 | 34 | 3.5 | 9.6 | 0.00 | 0.00 | 0.00 | 86 | 1011.4 |
| 20260507011008 | 44 | 88 | 7.8 | 14.8 | 0.00 | 0.00 | 0.00 | 86 | 1011.5 |
| 20260507010708 | 44 | 16 | 4.3 | 13.0 | 0.00 | 0.00 | 0.00 | 86 | 1011.5 |
| 20260507010408 | 44 | 84 | 5.2 | 9.6 | 0.00 | 0.00 | 0.00 | 86 | 1011.5 |
| 20260507010108 | 44 | 71 | 5.2 | 9.6 | 0.00 | 0.00 | 0.00 | 85 | 1011.5 |
| 20260507005808 | 44 | 97 | 11.3 | 13.0 | 0.00 | 0.00 | 0.00 | 85 | 1011.6 |
| 20260507005508 | 44 | 96 | 7.8 | 9.6 | 0.00 | 0.00 | 0.00 | 85 | 1011.4 |
| 20260507005208 | 44 | 21 | 6.1 | 13.0 | 0.00 | 0.00 | 0.00 | 85 | 1011.5 |
| 20260507004908 | 44 | 45 | 8.7 | 13.9 | 0.00 | 0.00 | 0.00 | 85 | 1011.4 |
| 20260507004608 | 44 | 355 | 8.7 | 13.0 | 0.00 | 0.00 | 0.00 | 85 | 1011.4 |
| 20260507004308 | 44 | 73 | 13.9 | 13.9 | 0.00 | 0.00 | 0.00 | 85 | 1011.3 |
| 20260507004008 | 44 | 48 | 6.1 | 13.0 | 0.00 | 0.00 | 0.00 | 85 | 1011.5 |
| 20260507003708 | 44 | 111 | 0.0 | 20.0 | 0.00 | 0.00 | 0.00 | 84 | 1011.4 |
| 20260507003408 | 44 | 87 | 15.6 | 15.6 | 0.00 | 0.00 | 0.00 | 84 | 1011.4 |
| 20260507003108 | 44 | 51 | 0.0 | 9.6 | 0.00 | 0.00 | 0.00 | 84 | 1011.4 |
| 20260507002808 | 44 | 75 | 11.3 | 23.5 | 0.00 | 0.00 | 0.00 | 84 | 1011.2 |
| 20260507002508 | 44 | 15 | 5.2 | 14.8 | 0.00 | 0.00 | 0.00 | 84 | 1011.6 |
| 20260507002208 | 44 | 71 | 12.2 | 16.5 | 0.00 | 0.00 | 0.00 | 84 | 1011.3 |
| 20260507001908 | 44 | 93 | 16.5 | 25.2 | 0.00 | 0.00 | 0.00 | 84 | 1011.3 |
| 20260507001608 | 44 | 100 | 7.0 | 10.4 | 0.00 | 0.00 | 0.00 | 84 | 1011.3 |
| 20260507001308 | 44 | 86 | 14.8 | 23.5 | 0.00 | 0.00 | 0.00 | 84 | 1011.4 |
| 20260507001008 | 44 | 132 | 0.0 | 16.5 | 0.00 | 0.00 | 0.00 | 84 | 1011.4 |
| 20260507000708 | 44 | 48 | 5.2 | 16.5 | 0.00 | 0.00 | 0.00 | 84 | 1011.4 |
| 20260507000408 | 44 | 338 | 5.2 | 13.9 | 0.00 | 0.00 | 0.00 | 84 | 1011.4 |
| 20260507000108 | 44 | 72 | 9.6 | 20.0 | 0.00 | 0.00 | 0.00 | 84 | 1011.4 |
| 20260506235808 | 44 | 71 | 5.2 | 14.8 | 0.00 | 0.00 | 0.00 | 84 | 1011.2 |
| 20260506235508 | 44 | 63 | 11.3 | 26.9 | 0.00 | 0.00 | 0.00 | 84 | 1011.2 |
| 20260506235208 | 44 | 76 | 13.9 | 18.2 | 0.00 | 0.00 | 0.00 | 84 | 1011.3 |
| 20260506234908 | 44 | 95 | 6.1 | 17.4 | 0.00 | 0.00 | 0.00 | 84 | 1011.2 |
| 20260506234608 | 44 | 113 | 4.3 | 29.5 | 0.00 | 0.00 | 0.00 | 84 | 1011.2 |
| 20260506234308 | 44 | 89 | 0.0 | 21.7 | 0.00 | 0.00 | 0.00 | 84 | 1011.2 |
| 20260506234008 | 44 | 83 | 14.8 | 16.5 | 0.00 | 0.00 | 0.00 | 84 | 1011.2 |
| 20260506233708 | 44 | 66 | 14.8 | 21.7 | 0.00 | 0.00 | 0.00 | 84 | 1011.3 |
| 20260506233408 | 44 | 119 | 8.7 | 31.3 | 0.00 | 0.00 | 0.00 | 84 | 1011.3 |
| 20260506233108 | 44 | 106 | 6.1 | 14.8 | 0.00 | 0.00 | 0.00 | 85 | 1011.1 |
| 20260506232808 | 44 | 67 | 11.3 | 20.0 | 0.00 | 0.00 | 0.00 | 85 | 1011.5 |
| 20260506232508 | 44 | 49 | 10.4 | 12.2 | 0.00 | 0.00 | 0.00 | 85 | 1011.3 |
| 20260506232208 | 44 | 44 | 9.6 | 20.0 | 0.00 | 0.00 | 0.00 | 85 | 1011.3 |
| 20260506231908 | 44 | 103 | 8.7 | 12.2 | 0.00 | 0.00 | 0.00 | 85 | 1011.2 |
| 20260506231608 | 44 | 83 | 15.6 | 23.5 | 0.00 | 0.00 | 0.00 | 85 | 1011.3 |
| 20260506231308 | 44 | 94 | 8.7 | 10.4 | 0.00 | 0.00 | 0.00 | 85 | 1011.3 |
| 20260506231008 | 44 | 48 | 20.0 | 22.6 | 0.00 | 0.00 | 0.00 | 85 | 1011.0 |
| 20260506230708 | 44 | 114 | 7.0 | 14.8 | 0.00 | 0.00 | 0.00 | 85 | 1011.2 |
| 20260506230408 | 44 | 94 | 5.2 | 6.1 | 0.00 | 0.00 | 0.00 | 85 | 1011.3 |
| 20260506230108 | 44 | 78 | 5.2 | 16.5 | 0.00 | 0.00 | 0.00 | 85 | 1011.0 |
| 20260506225808 | 44 | 92 | 7.8 | 13.9 | 0.00 | 0.00 | 0.00 | 85 | 1011.1 |
| 20260506225508 | 44 | 83 | 6.1 | 20.9 | 0.00 | 0.00 | 0.00 | 85 | 1011.0 |
| 20260506225208 | 44 | 58 | 10.4 | 13.9 | 0.00 | 0.00 | 0.00 | 85 | 1011.0 |
| 20260506224908 | 44 | 105 | 12.2 | 13.9 | 0.00 | 0.00 | 0.00 | 85 | 1011.2 |
| 20260506224608 | 44 | 66 | 6.1 | 19.1 | 0.00 | 0.00 | 0.00 | 85 | 1010.9 |
| 20260506224308 | 44 | 36 | 7.8 | 15.6 | 0.00 | 0.00 | 0.00 | 85 | 1011.0 |
| 20260506224008 | 44 | 109 | 8.7 | 11.3 | 0.00 | 0.00 | 0.00 | 85 | 1011.0 |
| 20260506223708 | 44 | 81 | 9.6 | 19.1 | 0.00 | 0.00 | 0.00 | 85 | 1010.9 |
| 20260506223408 | 44 | 120 | 8.7 | 11.3 | 0.00 | 0.00 | 0.00 | 85 | 1010.9 |
| 20260506223108 | 44 | 92 | 13.0 | 25.2 | 0.00 | 0.00 | 0.00 | 85 | 1010.9 |
| 20260506222808 | 44 | 73 | 8.7 | 13.0 | 0.00 | 0.00 | 0.00 | 84 | 1010.7 |
| 20260506222508 | 44 | 145 | 0.0 | 13.0 | 0.00 | 0.00 | 0.00 | 84 | 1010.9 |
| 20260506222208 | 44 | 32 | 0.0 | 21.7 | 0.00 | 0.00 | 0.00 | 84 | 1010.9 |
| 20260506221908 | 44 | 72 | 5.2 | 13.9 | 0.00 | 0.00 | 0.00 | 84 | 1010.8 |
| 20260506221608 | 45 | 33 | 0.0 | 14.8 | 0.00 | 0.00 | 0.00 | 84 | 1010.8 |
| 20260506221308 | 45 | 83 | 8.7 | 12.2 | 0.00 | 0.00 | 0.00 | 84 | 1010.7 |
| 20260506221008 | 45 | 55 | 0.0 | 13.0 | 0.00 | 0.00 | 0.00 | 83 | 1010.7 |
| 20260506220708 | 45 | 19 | 7.0 | 11.3 | 0.00 | 0.00 | 0.00 | 83 | 1010.6 |
| 20260506220408 | 45 | 38 | 6.1 | 17.4 | 0.00 | 0.00 | 0.00 | 83 | 1010.8 |
| 20260506220108 | 45 | 87 | 7.0 | 12.2 | 0.00 | 0.00 | 0.00 | 83 | 1010.7 |
| 20260506215808 | 45 | 56 | 13.9 | 13.9 | 0.00 | 0.00 | 0.00 | 82 | 1010.7 |
| 20260506215508 | 46 | 72 | 13.9 | 20.0 | 0.00 | 0.00 | 0.00 | 82 | 1010.7 |
| 20260506215208 | 46 | 95 | 6.1 | 12.2 | 0.00 | 0.00 | 0.00 | 82 | 1010.8 |
| 20260506214908 | 46 | 59 | 11.3 | 14.8 | 0.00 | 0.00 | 0.00 | 82 | 1010.9 |
| 20260506214608 | 46 | 71 | 6.1 | 33.9 | 0.00 | 0.00 | 0.00 | 82 | 1010.8 |
| 20260506214308 | 46 | 63 | 13.9 | 21.7 | 0.00 | 0.00 | 0.00 | 82 | 1010.8 |
| 20260506214008 | 46 | 84 | 10.4 | 19.1 | 0.00 | 0.00 | 0.00 | 82 | 1010.8 |
| 20260506213708 | 46 | 79 | 7.0 | 12.2 | 0.00 | 0.00 | 0.00 | 81 | 1010.7 |
| 20260506213408 | 46 | 93 | 16.5 | 31.3 | 0.00 | 0.00 | 0.00 | 81 | 1010.6 |
| 20260506213108 | 46 | 89 | 7.0 | 18.2 | 0.00 | 0.00 | 0.00 | 81 | 1010.5 |
| 20260506212808 | 46 | 80 | 8.7 | 13.9 | 0.00 | 0.00 | 0.00 | 81 | 1010.6 |
| 20260506212508 | 46 | 102 | 9.6 | 19.1 | 0.00 | 0.00 | 0.00 | 81 | 1010.6 |
| 20260506212208 | 46 | 65 | 5.2 | 13.0 | 0.00 | 0.00 | 0.00 | 81 | 1010.5 |
| 20260506211908 | 46 | 92 | 9.6 | 24.3 | 0.00 | 0.00 | 0.00 | 81 | 1010.5 |
| 20260506211608 | 46 | 48 | 6.1 | 16.5 | 0.00 | 0.00 | 0.00 | 81 | 1010.5 |
| 20260506211308 | 46 | 239 | 6.1 | 29.5 | 0.00 | 0.00 | 0.00 | 81 | 1010.2 |
| 20260506211008 | 46 | 117 | 0.0 | 16.5 | 0.00 | 0.00 | 0.00 | 81 | 1010.4 |
| 20260506210708 | 46 | 94 | 6.1 | 18.2 | 0.00 | 0.00 | 0.00 | 81 | 1010.3 |
| 20260506210408 | 46 | 111 | 10.4 | 16.5 | 0.00 | 0.00 | 0.00 | 81 | 1010.4 |
| 20260506210108 | 46 | 109 | 26.1 | 33.0 | 0.00 | 0.00 | 0.00 | 81 | 1010.5 |
| 20260506205808 | 46 | 59 | 9.6 | 18.2 | 0.00 | 0.00 | 0.00 | 81 | 1010.6 |
| 20260506205508 | 46 | 71 | 20.9 | 23.5 | 0.00 | 0.00 | 0.00 | 81 | 1010.4 |
| 20260506205208 | 46 | 140 | 9.6 | 19.1 | 0.00 | 0.00 | 0.00 | 81 | 1010.5 |
| 20260506204908 | 46 | 67 | 12.2 | 20.0 | 0.00 | 0.00 | 0.00 | 81 | 1010.3 |
| 20260506204608 | 46 | 112 | 15.6 | 20.0 | 0.00 | 0.00 | 0.00 | 81 | 1010.3 |
| 20260506204308 | 46 | 58 | 12.2 | 20.0 | 0.00 | 0.00 | 0.00 | 81 | 1010.4 |
| 20260506204008 | 46 | 51 | 5.2 | 13.9 | 0.00 | 0.00 | 0.00 | 81 | 1010.2 |
| 20260506203708 | 46 | 114 | 7.0 | 19.1 | 0.00 | 0.00 | 0.00 | 81 | 1010.4 |
| 20260506203408 | 46 | 48 | 17.4 | 30.4 | 0.00 | 0.00 | 0.00 | 81 | 1010.5 |
| 20260506203108 | 47 | 102 | 13.0 | 23.5 | 0.00 | 0.00 | 0.00 | 81 | 1010.4 |
| 20260506202808 | 47 | 77 | 9.6 | 26.9 | 0.00 | 0.00 | 0.00 | 81 | 1010.2 |
| 20260506202508 | 47 | 79 | 13.0 | 21.7 | 0.00 | 0.00 | 0.00 | 81 | 1010.4 |
| 20260506202208 | 47 | 84 | 6.1 | 18.2 | 0.00 | 0.00 | 0.00 | 81 | 1010.3 |
| 20260506201908 | 47 | 126 | 13.0 | 35.6 | 0.00 | 0.00 | 0.00 | 81 | 1010.1 |
| 20260506201608 | 47 | 61 | 9.6 | 20.9 | 0.00 | 0.00 | 0.00 | 81 | 1009.9 |
| 20260506201308 | 47 | 108 | 11.3 | 34.8 | 0.00 | 0.00 | 0.00 | 81 | 1010.0 |
| 20260506201008 | 47 | 40 | 9.6 | 33.9 | 0.00 | 0.00 | 0.00 | 81 | 1010.0 |
| 20260506200708 | 47 | 109 | 7.0 | 11.3 | 0.00 | 0.00 | 0.00 | 81 | 1010.2 |
| 20260506200408 | 47 | 86 | 11.3 | 28.7 | 0.00 | 0.00 | 0.00 | 81 | 1010.0 |
| 20260506200108 | 47 | 123 | 16.5 | 38.2 | 0.00 | 0.00 | 0.00 | 81 | 1010.0 |
| 20260506195808 | 47 | 72 | 18.2 | 29.5 | 0.00 | 0.00 | 0.00 | 81 | 1010.0 |
| 20260506195508 | 47 | 108 | 11.3 | 32.2 | 0.00 | 0.00 | 0.00 | 81 | 1009.8 |
| 20260506195208 | 47 | 37 | 16.5 | 17.4 | 0.00 | 0.00 | 0.00 | 81 | 1009.9 |
| 20260506194908 | 47 | 22 | 4.3 | 15.6 | 0.00 | 0.00 | 0.00 | 81 | 1010.0 |
| 20260506194608 | 47 | 108 | 8.7 | 23.5 | 0.00 | 0.00 | 0.00 | 81 | 1009.9 |
| 20260506194308 | 47 | 61 | 20.0 | 26.9 | 0.00 | 0.00 | 0.00 | 81 | 1009.9 |
| 20260506194008 | 47 | 70 | 8.7 | 20.0 | 0.00 | 0.00 | 0.00 | 81 | 1010.1 |
| 20260506193708 | 47 | 46 | 23.5 | 29.5 | 0.00 | 0.00 | 0.00 | 81 | 1010.0 |
| 20260506193408 | 47 | 104 | 20.0 | 32.2 | 0.00 | 0.00 | 0.00 | 81 | 1009.8 |
| 20260506193108 | 47 | 55 | 22.6 | 31.3 | 0.00 | 0.00 | 0.00 | 81 | 1009.8 |
| 20260506192808 | 47 | 73 | 19.1 | 33.0 | 0.00 | 0.00 | 0.00 | 81 | 1009.8 |
| 20260506192508 | 47 | 48 | 21.7 | 25.2 | 0.00 | 0.00 | 0.00 | 80 | 1009.9 |
| 20260506192208 | 47 | 71 | 13.0 | 23.5 | 0.00 | 0.00 | 0.00 | 81 | 1009.7 |
| 20260506191908 | 47 | 125 | 14.8 | 32.2 | 0.00 | 0.00 | 0.00 | 80 | 1009.8 |
| 20260506191608 | 47 | 77 | 24.3 | 34.8 | 0.00 | 0.00 | 0.00 | 80 | 1009.6 |
| 20260506191308 | 48 | 112 | 5.2 | 27.8 | 0.00 | 0.00 | 0.00 | 80 | 1009.7 |
| 20260506191008 | 48 | 91 | 4.3 | 23.5 | 0.00 | 0.00 | 0.00 | 80 | 1009.8 |
| 20260506190708 | 48 | 57 | 26.1 | 29.5 | 0.00 | 0.00 | 0.00 | 80 | 1009.7 |
| 20260506190408 | 48 | 124 | 21.7 | 23.5 | 0.00 | 0.00 | 0.00 | 80 | 1009.7 |
| 20260506190108 | 48 | 59 | 14.8 | 21.7 | 0.00 | 0.00 | 0.00 | 80 | 1009.6 |
| 20260506185808 | 48 | 87 | 8.7 | 33.0 | 0.00 | 0.00 | 0.00 | 80 | 1009.7 |
| 20260506185508 | 48 | 51 | 0.0 | 26.1 | 0.00 | 0.00 | 0.00 | 80 | 1009.6 |
| 20260506185208 | 48 | 105 | 9.6 | 13.0 | 0.00 | 0.00 | 0.00 | 81 | 1009.7 |
| 20260506184908 | 48 | 80 | 5.2 | 20.0 | 0.00 | 0.00 | 0.00 | 80 | 1009.5 |
| 20260506184608 | 48 | 108 | 7.8 | 15.6 | 0.00 | 0.00 | 0.00 | 80 | 1009.5 |
| 20260506184308 | 48 | 103 | 13.0 | 15.6 | 0.00 | 0.00 | 0.00 | 80 | 1009.4 |
| 20260506184008 | 48 | 119 | 13.9 | 20.0 | 0.00 | 0.00 | 0.00 | 80 | 1009.4 |
| 20260506183708 | 48 | 92 | 16.5 | 34.8 | 0.00 | 0.00 | 0.00 | 79 | 1009.5 |
| 20260506183408 | 48 | 100 | 8.7 | 27.8 | 0.00 | 0.00 | 0.00 | 79 | 1009.3 |
| 20260506183108 | 48 | 35 | 21.7 | 24.3 | 0.00 | 0.00 | 0.00 | 79 | 1009.4 |
| 20260506182808 | 48 | 44 | 20.9 | 36.5 | 0.00 | 0.00 | 0.00 | 79 | 1009.4 |
| 20260506182508 | 48 | 78 | 12.2 | 43.4 | 0.00 | 0.00 | 0.00 | 79 | 1009.3 |
| 20260506182208 | 48 | 94 | 9.6 | 30.4 | 0.00 | 0.00 | 0.00 | 79 | 1009.2 |
| 20260506181908 | 49 | 48 | 11.3 | 25.2 | 0.00 | 0.00 | 0.00 | 79 | 1009.1 |
| 20260506181608 | 49 | 88 | 21.7 | 23.5 | 0.00 | 0.00 | 0.00 | 80 | 1009.3 |
| 20260506181308 | 49 | 141 | 13.0 | 34.8 | 0.00 | 0.00 | 0.00 | 80 | 1008.9 |
| 20260506181008 | 49 | 82 | 16.5 | 33.0 | 0.00 | 0.00 | 0.00 | 80 | 1009.2 |
| 20260506180708 | 49 | 32 | 10.4 | 25.2 | 0.00 | 0.00 | 0.00 | 80 | 1009.0 |
| 20260506180408 | 49 | 60 | 9.6 | 31.3 | 0.00 | 0.00 | 0.00 | 80 | 1009.2 |
| 20260506180108 | 49 | 98 | 20.9 | 33.9 | 0.00 | 0.00 | 0.00 | 80 | 1009.0 |
| 20260506175808 | 49 | 134 | 18.2 | 36.5 | 0.00 | 0.00 | 0.00 | 80 | 1009.1 |
| 20260506175508 | 49 | 68 | 16.5 | 32.2 | 0.00 | 0.00 | 0.00 | 79 | 1009.0 |
| 20260506175208 | 49 | 51 | 21.7 | 28.7 | 0.00 | 0.00 | 0.00 | 79 | 1009.1 |
| 20260506174908 | 49 | 83 | 11.3 | 33.9 | 0.00 | 0.00 | 0.00 | 79 | 1008.8 |
| 20260506174608 | 49 | 59 | 29.5 | 33.9 | 0.00 | 0.00 | 0.00 | 79 | 1009.0 |
| 20260506174308 | 50 | 59 | 23.5 | 37.4 | 0.00 | 0.00 | 0.00 | 79 | 1009.0 |
| 20260506174008 | 50 | 84 | 13.0 | 37.4 | 0.00 | 0.00 | 0.00 | 79 | 1009.2 |
| 20260506173708 | 50 | 64 | 13.9 | 26.9 | 0.00 | 0.00 | 0.00 | 79 | 1008.9 |
| 20260506173408 | 50 | 63 | 21.7 | 26.9 | 0.00 | 0.00 | 0.00 | 79 | 1008.7 |
| 20260506173108 | 50 | 87 | 7.0 | 40.0 | 0.00 | 0.00 | 0.00 | 79 | 1008.9 |
| 20260506172808 | 50 | 86 | 13.9 | 25.2 | 0.00 | 0.00 | 0.00 | 79 | 1008.9 |
| 20260506172508 | 50 | 74 | 9.6 | 20.0 | 0.00 | 0.00 | 0.00 | 79 | 1008.7 |
| 20260506172208 | 50 | 74 | 5.2 | 29.5 | 0.00 | 0.00 | 0.00 | 78 | 1008.8 |
| 20260506171908 | 50 | 91 | 7.8 | 39.1 | 0.00 | 0.00 | 0.00 | 78 | 1008.6 |
| 20260506171608 | 51 | 67 | 19.1 | 36.5 | 0.00 | 0.00 | 0.00 | 78 | 1008.7 |
| 20260506171308 | 51 | 83 | 15.6 | 20.9 | 0.00 | 0.00 | 0.00 | 78 | 1008.5 |
| 20260506171008 | 51 | 74 | 18.2 | 20.0 | 0.00 | 0.00 | 0.00 | 78 | 1008.4 |
| 20260506170708 | 51 | 116 | 6.1 | 23.5 | 0.00 | 0.00 | 0.00 | 77 | 1008.4 |
| 20260506170408 | 51 | 31 | 16.5 | 22.6 | 0.00 | 0.00 | 0.00 | 77 | 1008.6 |
| 20260506170108 | 51 | 72 | 16.5 | 25.2 | 0.00 | 0.00 | 0.00 | 77 | 1008.4 |
| 20260506165808 | 51 | 30 | 13.0 | 24.3 | 0.00 | 0.00 | 0.00 | 76 | 1008.6 |
| 20260506165508 | 51 | 97 | 12.2 | 27.8 | 0.00 | 0.00 | 0.00 | 75 | 1008.3 |
| 20260506165208 | 52 | 111 | 12.2 | 30.4 | 0.00 | 0.00 | 0.00 | 75 | 1008.4 |
| 20260506164908 | 52 | 89 | 11.3 | 32.2 | 0.00 | 0.00 | 0.00 | 74 | 1008.2 |
| 20260506164608 | 52 | 71 | 17.4 | 26.1 | 0.00 | 0.00 | 0.00 | 74 | 1008.3 |
| 20260506164308 | 52 | 56 | 13.9 | 30.4 | 0.00 | 0.00 | 0.00 | 73 | 1008.2 |
| 20260506164008 | 52 | 115 | 15.6 | 23.5 | 0.00 | 0.00 | 0.00 | 73 | 1008.2 |
| 20260506163708 | 53 | 99 | 23.5 | 38.2 | 0.00 | 0.00 | 0.00 | 72 | 1008.3 |
| 20260506163408 | 53 | 130 | 21.7 | 35.6 | 0.00 | 0.00 | 0.00 | 71 | 1008.2 |
| 20260506163108 | 53 | 63 | 13.0 | 26.9 | 0.00 | 0.00 | 0.00 | 70 | 1008.2 |
| 20260506162808 | 53 | 74 | 9.6 | 33.9 | 0.00 | 0.00 | 0.00 | 69 | 1008.2 |
| 20260506162508 | 54 | 42 | 13.0 | 31.3 | 0.00 | 0.00 | 0.00 | 69 | 1008.2 |
| 20260506162208 | 54 | 93 | 8.7 | 21.7 | 0.00 | 0.00 | 0.00 | 68 | 1008.2 |
| 20260506161908 | 54 | 31 | 9.6 | 25.2 | 0.00 | 0.00 | 0.00 | 67 | 1008.2 |
| 20260506161608 | 54 | 197 | 10.4 | 20.0 | 0.00 | 0.00 | 0.00 | 67 | 1008.1 |
| 20260506161308 | 54 | 9 | 13.9 | 20.0 | 0.00 | 0.00 | 0.00 | 67 | 1007.9 |
| 20260506161008 | 54 | 99 | 15.6 | 26.9 | 0.00 | 0.00 | 0.00 | 65 | 1008.0 |
| 20260506160708 | 54 | 298 | 8.7 | 26.1 | 0.00 | 0.00 | 0.00 | 66 | 1008.1 |
| 20260506160408 | 54 | 94 | 13.9 | 28.7 | 0.00 | 0.00 | 0.00 | 66 | 1008.0 |
| 20260506160108 | 54 | 88 | 13.0 | 15.6 | 0.00 | 0.00 | 0.00 | 68 | 1007.8 |
| 20260506155808 | 53 | 82 | 10.4 | 26.9 | 0.00 | 0.00 | 0.00 | 72 | 1007.9 |
| 20260506155508 | 53 | 276 | 6.1 | 15.6 | 0.00 | 0.00 | 0.00 | 77 | 1007.9 |
| 20260506155208 | 53 | 265 | 7.8 | 20.0 | 0.00 | 0.00 | 0.00 | 77 | 1008.1 |
| 20260506154908 | 53 | 54 | 7.8 | 18.2 | 0.00 | 0.00 | 0.00 | 76 | 1008.0 |
| 20260506154608 | 53 | 21 | 13.9 | 21.7 | 0.00 | 0.00 | 0.00 | 75 | 1008.0 |
| 20260506154308 | 54 | 350 | 11.3 | 16.5 | 0.00 | 0.00 | 0.00 | 74 | 1008.0 |
| 20260506154008 | 54 | 37 | 15.6 | 19.1 | 0.00 | 0.00 | 0.00 | 75 | 1008.0 |
| 20260506153708 | 54 | 14 | 4.3 | 20.9 | 0.00 | 0.00 | 0.00 | 75 | 1008.1 |